Home   Weather   Espoo   Past weeks

Flag for Finland Past Weather in Espoo, Finland — Yesterday and Last 2 Weeks

Now
36 °F

Scattered showers. Partly sunny.


Feels Like: 29 °F
Forecast: 30 / 47 °F
Wind: 8 mph from South

Location: Helsinki-Vantaa

Current Time: Apr 27, 2017 at 4:16:55 pm

Latest Report: Apr 27, 2017 at 3:50 pm


Visibility: N/A

Pressure: 29.80 "Hg

Humidity: 87%

Dew Point: 32 °F

Location of EspooLocation

Past Weather in Espoo — Graph

°F

Espoo Temperature Yesterday

Maximum temperature yesterday: 45 °F (at 2:50 pm)
Minimum temperature yesterday: 32 °F (at 12:20 am)
Average temperature yesterday: 37 °F

High & Low Weather Summary for the Past Weeks

 TemperatureHumidityPressure
High50 °F (Apr 21, 3:50 pm)100% (Apr 21, 2:20 am)30.51 "Hg (Apr 21, 2:20 am)
Low18 °F (Apr 19, 5:50 am)30% (Apr 17, 5:20 pm)29.18 "Hg (Apr 22, 4:20 am)
Average34 °F68%29.76 "Hg
* Reported Apr 12 3:20 pm — Apr 27 3:20 pm, Espoo, Weather by CustomWeather, © 2017

Note: Actual official high and low records may vary slightly from our data, if they occured in-between our weather recording intervals... More about our weather records

Advertising

Espoo Weather History for the Previous 24 Hours

Scroll right to see more
 ConditionsComfort  
Time TempWeatherWind HumidityBarometerVisibility
3:20 pm
Thu, Apr 27
39 °FScattered showers. Partly sunny.16 mph65%29.77 "HgN/A
2:50 pm39 °FSnow flurries. Partly sunny.16 mph70%29.77 "Hg4 mi
2:20 pm45 °FScattered showers. Scattered clouds.10 mph61%29.77 "HgN/A
1:50 pm39 °FSnow flurries. Partly sunny.21 mph70%29.77 "HgN/A
1:20 pm43 °FScattered showers. Partly sunny.13 mph61%29.74 "HgN/A
12:50 pm41 °FScattered showers. Partly sunny.10 mph61%29.74 "HgN/A
12:20 pm41 °FSnow showers. Partly sunny.9 mph66%29.74 "Hg2 mi
11:50 am45 °FScattered showers. Partly sunny.14 mph61%29.71 "HgN/A
11:20 am46 °FScattered showers. Partly sunny.15 mph53%29.71 "HgN/A
10:50 am45 °FScattered clouds.13 mph57%29.71 "HgN/A
10:20 am43 °FScattered clouds.14 mph61%29.71 "HgN/A
9:50 am43 °FPassing clouds.14 mph66%29.71 "HgN/A
9:20 am41 °FPassing clouds.14 mph70%29.71 "HgN/A
8:50 am39 °FPassing clouds.12 mph81%29.71 "HgN/A
8:20 am37 °FPassing clouds.12 mph87%29.71 "HgN/A
7:50 am36 °FPassing clouds.13 mph87%29.68 "HgN/A
7:20 am36 °FPassing clouds.12 mph87%29.68 "HgN/A
6:50 am34 °FPassing clouds.9 mph93%29.68 "HgN/A
6:20 am34 °FPassing clouds.8 mph87%29.68 "HgN/A
5:50 am32 °FPassing clouds.10 mph93%29.68 "HgN/A
5:20 am34 °FClear.9 mph87%29.68 "Hg10 mi
4:50 am34 °FClear.10 mph87%29.68 "Hg10 mi
4:20 am34 °FClear.12 mph87%29.65 "Hg10 mi
3:50 am34 °FClear.12 mph87%29.65 "Hg10 mi
3:20 am34 °FClear.12 mph87%29.65 "Hg10 mi
2:50 am34 °FClear.12 mph87%29.65 "Hg10 mi
2:20 am34 °FClear.13 mph87%29.65 "Hg10 mi
1:50 am36 °FClear.15 mph81%29.65 "Hg10 mi
1:20 am36 °FClear.12 mph81%29.65 "Hg10 mi
12:50 am36 °FClear.15 mph81%29.65 "Hg10 mi
12:20 am36 °FClear.14 mph81%29.65 "Hg10 mi
11:50 pm
Wed, Apr 26
36 °FClear.14 mph81%29.62 "Hg10 mi
11:20 pm36 °FClear.15 mph81%29.62 "Hg10 mi
10:50 pm36 °FClear.15 mph81%29.62 "Hg10 mi
10:20 pm36 °FClear.15 mph81%29.59 "Hg10 mi
9:50 pm36 °FPassing clouds.14 mph81%29.59 "HgN/A
9:20 pm37 °FScattered showers. Passing clouds.16 mph75%29.59 "HgN/A
8:50 pm37 °FScattered showers. Broken clouds.18 mph75%29.56 "HgN/A
8:20 pm41 °FScattered clouds.9 mph57%29.56 "HgN/A
7:50 pm41 °FScattered showers. Scattered clouds.14 mph61%29.53 "HgN/A
7:20 pm41 °FScattered showers. Broken clouds.20 mph57%29.53 "HgN/A
6:50 pm43 °FPartly sunny.22 mph53%29.50 "HgN/A
6:20 pm43 °FScattered clouds.20 mph53%29.47 "HgN/A
5:50 pm45 °FPartly sunny.20 mph53%29.47 "HgN/A
5:20 pm39 °FScattered showers. Scattered clouds.21 mph75%29.45 "HgN/A
4:50 pm43 °FSprinkles. Partly sunny.18 mph57%29.45 "HgN/A
4:20 pm45 °FScattered clouds.22 mph53%29.42 "HgN/A
Weather by CustomWeather, © 2017

See weather overviewHow to use our weather pages